Regional Weather Roundup
Issued by NWS

Home | Current Version | Previous Version | Text Only | Print | Product List | Glossary On
Versions: 1 2 3 4 5 6 7 8 9 10 11 12 13 14 15 16 17 18 19 20 21 22 23 24 25 26 27 28 29 30 31 32 33 34 35 36 37 38 39 40 41 42 43 44 45 46 47 48 49 50
000
ASUS44 KBMX 231010
RWRAL

ALABAMA REGIONAL WEATHER ROUNDUP
NATIONAL WEATHER SERVICE BIRMINGHAM AL
400 AM CST SUN NOV 23 2014

NOTE: "FAIR" INDICATES FEW OR NO CLOUDS BELOW 12,000 FEET
WITH NO SIGNIFICANT WEATHER AND/OR OBSTRUCTIONS TO VISIBILITY.

THE REMARK "TC" DENOTES TEMPERATURE IN DEGREES CELSIUS.

ALZ001>011-014-016>018-020-231100-
NORTH ALABAMA

CITY           SKY/WX    TMP DP  RH WIND       PRES   REMARKS
MUSCLE SHOALS  CLOUDY    58  49  72 SE10G18   29.92F
HUNTSVILLE     LGT RAIN  54  46  74 SE14      29.94F
DECATUR        CLOUDY    55  47  74 SE12G17   29.95F
HALEYVILLE     CLOUDY    55  52  90 SE9G16    29.92F
GADSDEN        CLOUDY    50  43  76 E9        30.01F
$$

ALZ012-013-022-023-030>036-040>044-231100-
WEST CENTRAL ALABAMA

CITY           SKY/WX    TMP DP  RH WIND       PRES   REMARKS
TUSCALOOSA     CLOUDY    59  54  83 E7        29.90F
$$

ALZ015-024>027-033>036-040>044-231100-
CENTRAL ALABAMA

CITY           SKY/WX    TMP DP  RH WIND       PRES   REMARKS
BIRMINGHAM     CLOUDY    55  52  89 E12G22    29.95F
MONTGOMERY     CLOUDY    58  56  93 E9        29.92F
SHELBY CO ARPT CLOUDY    58  55  90 VRB6      29.93F
MAXWELL AFB    CLOUDY    57  56  96 E7        29.92F
GREENVILLE     LGT RAIN  61  59  93 SE7       29.90F
$$

ALZ019-021-028-029-037-038-045>048-231100-
EAST CENTRAL ALABAMA

CITY           SKY/WX    TMP DP  RH WIND       PRES   REMARKS
ANNISTON       CLOUDY    53  51  93 NE8       30.00S FOG
ALEXANDER CITY RAIN      59  55  84 E10       29.97F
AUBURN         CLOUDY    54  52  94 E13G18    30.00F
$$

ALZ051>064-231100-
SOUTHWEST ALABAMA

CITY           SKY/WX    TMP DP  RH WIND       PRES   REMARKS
MOBILE         CLOUDY    62  62 100 E7        29.82F FOG
BROOKLEY FIELD CLOUDY    64  63  96 N5        29.83F
EVERGREEN      LGT RAIN  63  61  93 SE7       29.87F FOG
$$

ALZ049-050-065>069-231100-
SOUTHEAST ALABAMA

CITY           SKY/WX    TMP DP  RH WIND       PRES   REMARKS
DOTHAN         LGT RAIN  61  60  97 E8        29.97F FOG
OZARK          CLOUDY    62  61  97 E12       29.91F
TROY           LGT RAIN  60  59  96 E8        29.92F
EUFAULA        RAIN      62  32  32 E6        29.95F
$$



USA.gov is the U.S. government's official web portal to all federal, state and local government web resources and services.